Voltar ao catálogo

FENGYUN 1C DEB

AtivoPO
NORAD 30804·DEBRIS·🇨🇳 China

Lançado May 10, 1999 de Taiyuan Satellite Launch Center

Loading…

Próximas Passagens (próximas 24 horas)

TLE

AtualizadoSource: Space-Track

Época: Sep 14, 2026, 04:51 UTC

1 30804U 99025AUN 26257.20259722  .00001082  00000-0  20867-3 0  9998
2 30804  98.8719 344.9542 0183903  74.4730 317.2089 14.55596493 34782

Acompanhe FENGYUN 1C DEB em tempo real com AllMySat

Download on the App Store